FW7740 Weather Reports


Display with metric or nautical units.
time (UTC)temp
F
wind
direction
speed
MPH
gust
MPH
rain 1hr
in
rain 24hr
in
rain mn
in
humidity
%
barometer
mb
20260509162314 78 356 2.0 2.0 0.00 0.01 0.01 44 1012.5
20260509161811 78 357 2.0 2.0 0.00 0.01 0.01 45 1012.5
20260509161307 77 342 0.0 0.0 0.00 0.01 0.01 49 1012.5
20260509160802 77 75 3.0 3.0 0.00 0.01 0.01 47 1012.8
20260509160259 76 335 0.0 0.0 0.00 0.01 0.01 50 1012.5
20260509155754 76 353 0.0 0.0 0.00 0.01 0.01 49 1012.5
20260509155251 75 352 1.0 1.0 0.00 0.01 0.01 52 1011.8
20260509154747 75 2 3.0 3.0 0.00 0.01 0.01 51 1012.1
20260509154244 75 2 0.0 0.0 0.00 0.01 0.01 59 1012.1
20260509153741 74 355 1.0 1.0 0.00 0.01 0.01 59 1012.1
20260509153237 73 17 1.0 2.0 0.00 0.01 0.01 58 1012.5
20260509152734 73 279 3.0 3.0 0.00 0.01 0.01 60 1012.5
20260509152230 72 340 1.0 1.0 0.00 0.01 0.01 64 1012.1
20260509151727 71 283 2.0 2.0 0.00 0.01 0.01 66 1012.5
20260509151224 72 339 2.0 2.0 0.00 0.01 0.01 70 1012.1
20260509150722 71 358 2.0 2.0 0.00 0.01 0.01 71 1012.1
20260509150220 70 26 2.0 2.0 0.00 0.01 0.01 72 1012.5
20260509145716 70 298 3.0 2.0 0.00 0.01 0.01 74 1012.1
20260509145211 71 0 1.0 1.0 0.00 0.01 0.01 68 1012.5
20260509144708 70 353 0.0 0.0 0.00 0.01 0.01 71 1012.1
20260509144205 69 354 0.0 0.0 0.00 0.01 0.01 71 1012.5
20260509143702 70 357 1.0 1.0 0.00 0.01 0.01 72 1012.1
20260509143159 69 3 0.0 1.0 0.00 0.01 0.01 73 1012.1
20260509142655 68 354 0.0 0.0 0.00 0.01 0.01 75 1012.1
20260509142152 68 357 0.0 0.0 0.00 0.01 0.01 77 1012.1
20260509141647 67 352 1.0 1.0 0.00 0.01 0.01 78 1012.1
20260509141144 66 355 1.0 1.0 0.00 0.01 0.01 78 1011.8
20260509140641 65 353 1.0 1.0 0.00 0.01 0.01 81 1012.1
20260509140139 65 348 2.0 1.0 0.00 0.01 0.01 83 1011.8
20260509135636 64 293 3.0 2.0 0.00 0.01 0.01 83 1011.8
20260509135134 64 347 2.0 2.0 0.00 0.01 0.01 82 1011.8
20260509134630 64 353 1.0 1.0 0.00 0.01 0.01 83 1011.8
20260509134128 63 323 0.0 0.0 0.00 0.01 0.01 86 1011.8
20260509133625 61 0 2.0 2.0 0.00 0.01 0.01 87 1011.8
20260509133122 61 347 0.0 0.0 0.00 0.01 0.01 87 1011.8
20260509132620 61 317 1.0 1.0 0.00 0.01 0.01 86 1011.8
20260509132119 61 338 0.0 0.0 0.00 0.01 0.01 85 1011.8
20260509131614 59 337 0.0 0.0 0.00 0.01 0.01 85 1011.8
20260509131112 59 337 0.0 0.0 0.00 0.01 0.01 86 1011.8
20260509130607 57 337 0.0 0.0 0.00 0.01 0.01 87 1011.8
20260509130104 56 337 0.0 0.0 0.00 0.01 0.01 88 1012.1
20260509125600 55 337 0.0 0.0 0.00 0.01 0.01 88 1011.8
20260509125057 53 337 0.0 0.0 0.00 0.01 0.01 90 1011.8
20260509124553 52 337 0.0 0.0 0.00 0.01 0.01 95 1011.8
20260509124051 52 337 0.0 0.0 0.00 0.01 0.01 95 1011.8
20260509123549 52 337 0.0 0.0 0.00 0.01 0.01 97 1011.8
20260509123045 51 304 0.0 0.0 0.00 0.01 0.01 98 1011.8
20260509122541 51 304 0.0 0.0 0.00 0.01 0.01 99 1011.8
20260509122038 50 304 0.0 0.0 0.00 0.01 0.01 99 1011.8
20260509121534 50 304 0.0 1.0 0.00 0.01 0.01 99 1011.8
20260509121032 49 304 1.0 1.0 0.00 0.01 0.01 99 1011.4
20260509120531 49 304 0.0 0.0 0.00 0.01 0.01 99 1011.4
20260509120029 48 304 0.0 0.0 0.00 0.01 0.01 99 1011.4
20260509115525 48 304 0.0 0.0 0.00 0.01 0.01 99 1011.4
20260509115023 48 304 0.0 0.0 0.00 0.01 0.01 99 1011.4
20260509114521 48 304 0.0 0.0 0.00 0.01 0.01 99 1011.4
20260509114020 48 304 1.0 1.0 0.00 0.01 0.01 99 1011.1
20260509113518 48 304 0.0 0.0 0.00 0.01 0.01 99 1011.4
20260509113015 48 304 0.0 0.0 0.00 0.01 0.01 99 1011.1
20260509112511 48 304 1.0 1.0 0.00 0.01 0.01 99 1011.1
20260509112008 48 304 0.0 0.0 0.00 0.01 0.01 99 1011.1
20260509111505 48 304 0.0 0.0 0.00 0.01 0.01 99 1011.1
20260509111002 48 304 0.0 0.0 0.00 0.01 0.01 99 1011.4
20260509110459 48 304 0.0 0.0 0.00 0.01 0.01 99 1011.4
20260509105956 48 304 0.0 0.0 0.00 0.01 0.01 99 1010.8
20260509105455 48 304 0.0 0.0 0.00 0.01 0.01 99 1011.1
20260509104951 48 304 0.0 0.0 0.00 0.01 0.01 99 1011.1
20260509104448 48 304 0.0 0.0 0.00 0.01 0.01 99 1011.1
20260509103946 48 304 0.0 0.0 0.00 0.01 0.01 99 1011.4
20260509103443 49 304 0.0 0.0 0.00 0.01 0.01 99 1011.4
20260509102941 49 304 0.0 0.0 0.00 0.01 0.01 99 1011.4
20260509102438 49 304 0.0 0.0 0.00 0.01 0.01 99 1011.1
20260509101934 49 304 0.0 0.0 0.00 0.01 0.01 99 1011.4
20260509101431 49 304 0.0 0.0 0.00 0.01 0.01 99 1011.1
20260509100928 49 304 0.0 0.0 0.00 0.01 0.01 99 1011.1
20260509100425 49 304 0.0 0.0 0.00 0.01 0.01 99 1011.4
20260509095922 50 304 0.0 0.0 0.00 0.01 0.01 99 1011.4
20260509095419 50 304 0.0 0.0 0.00 0.01 0.01 99 1011.1
20260509094916 50 304 0.0 0.0 0.00 0.01 0.01 99 1011.1
20260509094412 50 304 0.0 0.0 0.00 0.01 0.01 99 1011.1
20260509093910 50 304 0.0 0.0 0.00 0.01 0.01 99 1011.1
20260509093407 50 304 0.0 0.0 0.00 0.01 0.01 98 1011.1
20260509092906 50 304 0.0 0.0 0.00 0.01 0.01 98 1011.4
20260509092403 50 304 0.0 0.0 0.00 0.01 0.01 99 1011.4
20260509091901 51 304 0.0 0.0 0.00 0.01 0.01 99 1011.1
20260509091358 51 304 0.0 0.0 0.00 0.01 0.01 99 1011.4
20260509090855 51 304 0.0 0.0 0.00 0.01 0.01 98 1011.1
20260509090352 51 304 0.0 0.0 0.00 0.01 0.01 98 1011.4
20260509085850 51 304 1.0 1.0 0.00 0.01 0.01 98 1011.1
20260509085347 51 304 0.0 0.0 0.00 0.01 0.01 99 1011.1
20260509084843 51 304 0.0 0.0 0.00 0.01 0.01 98 1010.8
20260509084340 51 304 0.0 0.0 0.00 0.01 0.01 98 1010.8
20260509083838 52 304 0.0 0.0 0.00 0.01 0.01 98 1011.1
20260509083334 52 304 0.0 0.0 0.00 0.01 0.01 98 1011.1
20260509082831 52 304 0.0 0.0 0.00 0.01 0.01 98 1010.8
20260509082327 52 304 0.0 0.0 0.00 0.01 0.01 98 1010.8
20260509081825 52 304 0.0 0.0 0.00 0.01 0.01 98 1010.8
20260509081322 53 304 0.0 0.0 0.00 0.01 0.01 98 1011.1
20260509080820 53 304 0.0 0.0 0.00 0.01 0.01 98 1010.8
20260509080318 53 304 0.0 0.0 0.00 0.01 0.01 98 1010.4
20260509075816 53 304 0.0 0.0 0.00 0.01 0.01 98 1010.8
20260509075313 53 304 0.0 0.0 0.00 0.01 0.01 98 1010.8
20260509074810 53 304 0.0 0.0 0.00 0.01 0.01 98 1010.8
20260509074307 53 304 0.0 0.0 0.00 0.01 0.01 98 1010.8
20260509073803 54 304 0.0 0.0 0.00 0.01 0.01 98 1010.8
20260509073300 54 304 0.0 0.0 0.00 0.01 0.01 98 1011.1
20260509072756 54 304 0.0 0.0 0.00 0.01 0.01 98 1011.1
20260509072253 54 304 0.0 0.0 0.00 0.01 0.01 98 1010.8
20260509071750 55 304 0.0 0.0 0.00 0.01 0.01 98 1010.8
20260509071247 55 304 0.0 0.0 0.00 0.01 0.01 98 1010.8
20260509070744 55 304 0.0 0.0 0.00 0.01 0.01 98 1010.8
20260509070240 55 304 0.0 0.0 0.00 0.01 0.01 98 1010.8
20260509065737 55 304 0.0 0.0 0.00 0.01 0.01 98 1010.8
20260509065233 55 304 0.0 0.0 0.00 0.01 0.01 98 1010.8
20260509064729 55 304 0.0 0.0 0.00 0.01 0.01 98 1010.8
20260509064227 56 304 2.0 2.0 0.00 0.01 0.01 98 1010.4
20260509063724 56 304 0.0 0.0 0.00 0.01 0.01 98 1010.8
20260509063220 56 304 0.0 0.0 0.00 0.01 0.01 98 1010.8
20260509062718 56 304 0.0 0.0 0.00 0.01 0.01 98 1010.4
20260509062215 56 304 1.0 1.0 0.00 0.01 0.01 98 1010.8
20260509061712 56 304 0.0 0.0 0.00 0.01 0.01 98 1010.8
20260509061210 56 304 0.0 0.0 0.00 0.01 0.01 98 1010.8
20260509060707 56 304 0.0 0.0 0.00 0.01 0.01 98 1010.8
20260509060203 56 304 0.0 0.0 0.00 0.01 0.01 98 1010.8
20260509055659 56 304 0.0 0.0 0.00 0.01 0.01 98 1010.8
20260509055155 56 304 0.0 0.0 0.00 0.01 0.01 98 1010.8
20260509054652 56 304 0.0 0.0 0.00 0.01 0.01 98 1011.1
20260509054149 56 304 0.0 0.0 0.00 0.01 0.01 98 1010.8
20260509053647 56 304 0.0 0.0 0.05 0.01 0.01 97 1011.1
20260509053144 56 304 0.0 0.0 0.05 0.01 0.01 97 1011.1
20260509052642 56 304 0.0 0.0 0.00 0.00 0.00 97 1011.1
20260509052139 56 304 0.0 0.0 0.00 0.00 0.00 97 1011.1
20260509051637 56 304 0.0 0.0 0.00 0.00 0.00 97 1010.8
20260509051134 56 304 0.0 0.0 0.00 0.00 0.00 97 1010.8
20260509050631 56 304 1.0 1.0 0.00 0.00 0.00 97 1011.1
20260509050127 56 304 0.0 0.0 0.00 0.00 0.00 97 1010.8
20260509045625 57 304 0.0 0.0 0.00 0.18 0.18 97 1010.8
20260509045121 57 304 0.0 0.0 0.00 0.18 0.18 97 1010.8
20260509044619 57 304 0.0 0.0 0.00 0.18 0.18 97 1010.8
20260509044116 57 304 0.0 0.0 0.00 0.18 0.18 97 1011.1
20260509043612 57 304 0.0 0.0 0.00 0.18 0.18 96 1010.8
20260509043108 57 304 0.0 0.0 0.00 0.18 0.18 96 1011.1
20260509042605 58 304 0.0 0.0 0.00 0.18 0.18 96 1010.8
20260509042100 58 304 0.0 0.0 0.00 0.18 0.18 96 1010.8
20260509041558 58 304 0.0 0.0 0.00 0.18 0.18 96 1010.8
20260509041055 59 304 0.0 0.0 0.00 0.18 0.18 96 1010.8
20260509040553 59 304 0.0 0.0 0.00 0.18 0.18 96 1010.8
20260509040050 59 304 0.0 0.0 0.00 0.18 0.18 96 1010.8
20260509035547 59 304 0.0 0.0 0.00 0.18 0.18 96 1010.8
20260509035043 59 304 0.0 0.0 0.00 0.18 0.18 95 1010.8
20260509034542 60 304 0.0 0.0 0.00 0.18 0.18 96 1010.8
20260509034038 60 304 0.0 0.0 0.00 0.18 0.18 96 1011.1
20260509033536 60 304 0.0 0.0 0.00 0.18 0.18 96 1011.1
20260509033032 60 304 0.0 0.0 0.00 0.18 0.18 95 1011.1
20260509032529 60 304 0.0 0.0 0.00 0.18 0.18 95 1011.4
20260509032027 60 303 0.0 0.0 0.00 0.18 0.18 95 1011.8
20260509031524 60 303 0.0 0.0 0.00 0.18 0.18 95 1011.4
20260509031021 60 303 0.0 0.0 0.00 0.18 0.18 94 1011.4
20260509030519 60 303 0.0 0.0 0.00 0.18 0.18 94 1011.1
20260509030016 60 303 0.0 0.0 0.00 0.18 0.18 93 1011.1
20260509025512 60 303 0.0 0.0 0.00 0.18 0.18 93 1010.8
20260509025007 60 297 2.0 2.0 0.00 0.18 0.18 93 1010.8
20260509024503 60 325 0.0 0.0 0.00 0.18 0.18 93 1010.8
20260509024000 60 321 0.0 0.0 0.07 0.18 0.18 93 1010.4
20260509023458 60 247 4.0 5.0 0.12 0.18 0.18 94 1010.1
20260509022954 60 350 2.0 2.0 0.19 0.17 0.17 94 1010.8
20260509022451 60 342 3.0 3.0 0.26 0.16 0.16 94 1010.8
20260509021949 61 4 1.0 2.0 0.28 0.14 0.14 94 1010.8
20260509021445 61 332 0.0 1.0 0.24 0.12 0.12 93 1011.1
20260509020943 61 354 3.0 3.0 0.24 0.10 0.10 93 1011.1
20260509020441 61 348 5.0 7.0 0.35 0.08 0.08 92 1011.1
20260509015938 61 357 2.0 2.0 0.35 0.06 0.06 91 1010.8
20260509015437 62 346 3.0 3.0 0.12 0.02 0.02 90 1010.4
20260509014933 63 343 1.0 1.0 0.00 0.00 0.00 87 1009.6
20260509014429 63 345 3.0 3.0 0.00 0.00 0.00 85 1009.6
20260509013926 64 344 3.0 3.0 0.00 0.00 0.00 82 1009.3
20260509013423 64 15 3.0 2.0 0.00 0.00 0.00 80 1009.0
20260509012918 64 338 5.0 5.0 0.00 0.00 0.00 79 1009.3
20260509012415 64 344 4.0 5.0 0.00 0.00 0.00 80 1009.0
20260509011913 64 343 5.0 5.0 0.00 0.00 0.00 79 1009.0
20260509011410 64 340 9.0 10.0 0.00 0.00 0.00 80 1009.3
20260509010908 64 354 5.0 7.0 0.00 0.00 0.00 81 1009.6
20260509010405 64 260 0.0 0.0 0.00 0.00 0.00 82 1008.3
20260509005856 64 260 0.0 0.0 0.00 0.00 0.00 81 1008.0
20260509005354 64 260 0.0 1.0 0.00 0.00 0.00 81 1008.3
20260509004849 64 260 0.0 0.0 0.00 0.00 0.00 81 1007.6
20260509004345 65 260 0.0 0.0 0.00 0.00 0.00 81 1007.6
20260509003843 65 260 1.0 1.0 0.00 0.00 0.00 81 1007.6
20260509003341 65 260 1.0 1.0 0.00 0.00 0.00 80 1007.6
20260509002837 65 260 1.0 1.0 0.00 0.00 0.00 80 1008.0
20260509002335 65 260 2.0 2.0 0.00 0.00 0.00 79 1007.6
20260509001833 66 272 1.0 1.0 0.00 0.00 0.00 78 1008.3
20260509001328 66 278 1.0 1.0 0.00 0.00 0.00 77 1008.3
20260509000826 66 279 1.0 1.0 0.00 0.00 0.00 76 1008.0
20260509000325 66 288 0.0 0.0 0.00 0.00 0.00 75 1008.3
20260508235820 66 288 0.0 0.0 0.00 0.00 0.00 74 1008.3
20260508235317 66 290 0.0 0.0 0.00 0.00 0.00 74 1008.0
20260508234814 66 290 0.0 0.0 0.00 0.00 0.00 73 1008.0
20260508234310 66 290 0.0 0.0 0.00 0.00 0.00 73 1008.3
20260508233809 66 290 0.0 0.0 0.00 0.00 0.00 72 1008.0
20260508233308 66 290 0.0 0.0 0.00 0.00 0.00 72 1008.3
20260508232804 67 290 0.0 0.0 0.00 0.00 0.00 71 1008.3
20260508232300 67 302 1.0 1.0 0.00 0.00 0.00 71 1008.6
20260508231759 67 313 0.0 1.0 0.00 0.00 0.00 69 1008.6
20260508231255 67 196 2.0 2.0 0.00 0.00 0.00 70 1008.6
20260508230752 67 265 1.0 2.0 0.00 0.00 0.00 68 1009.3
20260508230248 67 230 2.0 2.0 0.00 0.00 0.00 69 1009.6
20260508225746 67 333 0.0 0.0 0.00 0.00 0.00 67 1009.6
20260508225242 68 329 0.0 0.0 0.00 0.00 0.00 66 1010.1
20260508224740 68 344 1.0 1.0 0.00 0.00 0.00 66 1010.1
20260508224237 69 336 1.0 2.0 0.00 0.00 0.00 64 1010.1
20260508223735 69 346 2.0 2.0 0.00 0.00 0.00 62 1010.1
20260508223232 70 2 3.0 3.0 0.00 0.00 0.00 60 1010.1
20260508222729 70 359 2.0 3.0 0.00 0.00 0.00 58 1010.1
20260508222227 71 333 0.0 0.0 0.00 0.00 0.00 58 1009.6
20260508221723 71 333 0.0 0.0 0.00 0.00 0.00 56 1009.6
20260508221219 72 334 1.0 1.0 0.00 0.00 0.00 55 1009.6
20260508220715 74 342 0.0 0.0 0.00 0.00 0.00 51 1010.1
20260508220212 74 343 0.0 0.0 0.00 0.00 0.00 50 1009.6
20260508215708 75 329 0.0 1.0 0.00 0.00 0.00 45 1009.6
20260508215205 75 319 0.0 0.0 0.00 0.00 0.00 45 1009.6
20260508214702 76 334 0.0 0.0 0.00 0.00 0.00 46 1009.3
20260508214200 77 334 0.0 0.0 0.00 0.00 0.00 43 1009.0
20260508213656 77 343 0.0 1.0 0.00 0.00 0.00 38 1009.0
20260508213152 77 354 0.0 0.0 0.00 0.00 0.00 39 1009.0
20260508212649 78 309 1.0 1.0 0.00 0.00 0.00 41 1009.0
20260508212145 78 167 3.0 3.0 0.00 0.00 0.00 38 1009.0
20260508211640 78 288 1.0 1.0 0.00 0.00 0.00 41 1009.0
20260508211137 79 326 0.0 0.0 0.00 0.00 0.00 41 1009.0
20260508210634 79 198 3.0 3.0 0.00 0.00 0.00 37 1009.0
20260508210132 80 153 2.0 5.0 0.00 0.00 0.00 37 1009.0
20260508205628 80 285 1.0 1.0 0.00 0.00 0.00 37 1009.3
20260508205125 80 292 1.0 2.0 0.00 0.00 0.00 34 1009.3
20260508204621 80 196 2.0 2.0 0.00 0.00 0.00 34 1009.3
20260508204117 80 300 0.0 0.0 0.00 0.00 0.00 36 1009.3
20260508203614 81 157 5.0 6.0 0.00 0.00 0.00 33 1009.6
20260508203110 81 283 0.0 0.0 0.00 0.00 0.00 34 1009.6
20260508202606 80 295 0.0 0.0 0.00 0.00 0.00 35 1009.3
20260508202104 80 199 6.0 7.0 0.00 0.00 0.00 33 1009.6
20260508201600 80 219 3.0 5.0 0.00 0.00 0.00 33 1010.1
20260508201057 80 259 3.0 3.0 0.00 0.00 0.00 37 1010.1
20260508200554 79 183 6.0 7.0 0.00 0.00 0.00 35 1010.1
20260508200049 80 185 3.0 7.0 0.00 0.00 0.00 34 1010.1
20260508195546 80 205 1.0 1.0 0.00 0.00 0.00 35 1010.1
20260508195042 79 272 0.0 0.0 0.00 0.00 0.00 36 1010.1
20260508194540 79 6 2.0 3.0 0.00 0.00 0.00 36 1010.4
20260508194037 79 227 3.0 3.0 0.00 0.00 0.00 34 1010.1
20260508193533 78 237 4.0 5.0 0.00 0.00 0.00 37 1010.4
20260508193030 79 173 3.0 3.0 0.00 0.00 0.00 35 1010.8
20260508192527 78 236 4.0 6.0 0.00 0.00 0.00 36 1010.8
20260508192024 78 206 2.0 3.0 0.00 0.00 0.00 40 1010.8
20260508191521 78 180 4.0 5.0 0.00 0.00 0.00 39 1010.8
20260508191017 78 156 6.0 6.0 0.00 0.00 0.00 37 1010.8
20260508190515 79 125 0.0 1.0 0.00 0.00 0.00 38 1011.1
20260508190010 78 155 5.0 6.0 0.00 0.00 0.00 38 1011.1
20260508185508 78 154 3.0 5.0 0.00 0.00 0.00 40 1010.8
20260508185006 77 160 3.0 3.0 0.00 0.00 0.00 41 1011.1
20260508184504 77 167 5.0 7.0 0.00 0.00 0.00 39 1011.4
20260508183959 76 203 3.0 3.0 0.00 0.00 0.00 42 1011.4
20260508183456 76 302 0.0 0.0 0.00 0.00 0.00 43 1011.8
20260508182957 75 320 1.0 0.0 0.00 0.00 0.00 42 1011.8
20260508182454 75 249 3.0 3.0 0.00 0.00 0.00 46 1011.8
20260508181950 74 186 3.0 5.0 0.00 0.00 0.00 46 1011.8
20260508181446 74 312 0.0 0.0 0.00 0.00 0.00 46 1011.8
20260508180944 74 237 2.0 2.0 0.00 0.00 0.00 46 1011.8
20260508180440 74 310 0.0 0.0 0.00 0.00 0.00 44 1011.8
20260508175936 75 175 4.0 6.0 0.00 0.00 0.00 45 1012.1
20260508175433 75 339 1.0 1.0 0.00 0.00 0.00 45 1012.1
20260508174931 74 254 1.0 1.0 0.00 0.00 0.00 46 1012.5
20260508174428 74 179 3.0 3.0 0.00 0.00 0.00 46 1012.1
20260508173925 73 255 1.0 2.0 0.00 0.00 0.00 48 1012.1
20260508173422 73 191 1.0 1.0 0.00 0.00 0.00 48 1012.5
20260508172918 72 289 1.0 1.0 0.00 0.00 0.00 52 1012.1
20260508172416 73 22 3.0 5.0 0.00 0.00 0.00 47 1012.5
20260508171911 73 127 3.0 3.0 0.00 0.00 0.00 48 1012.8
20260508171408 73 204 3.0 5.0 0.00 0.00 0.00 48 1012.8
20260508170905 73 255 1.0 2.0 0.00 0.00 0.00 49 1012.8
20260508170402 73 269 2.0 2.0 0.00 0.00 0.00 48 1012.8
20260508165858 73 303 1.0 2.0 0.00 0.00 0.00 48 1012.8
20260508165357 73 137 2.0 2.0 0.00 0.00 0.00 49 1012.8
20260508164852 71 164 3.0 5.0 0.00 0.00 0.00 50 1012.8
20260508164350 72 156 7.0 7.0 0.00 0.00 0.00 48 1013.5
20260508163847 72 299 1.0 1.0 0.00 0.00 0.00 50 1013.5
20260508163345 70 348 1.0 1.0 0.00 0.00 0.00 51 1013.5
20260508162840 70 86 0.0 0.0 0.00 0.00 0.00 51 1013.5